Time,TemperatureF,DewpointF,PressureIn,WindDirection,WindDirectionDegrees,WindSpeedMPH,WindSpeedGustMPH,Humidity,HourlyPrecipIn,Conditions,Clouds,dailyrainin,SoftwareType,DateUTC
2013-06-04 00:00:00,45.6,38.8,29.97,ESE,112,0.0,0.0,77,0.00,,SKC,0.00,VWS V14.01,2013-06-04 04:00:00,
2013-06-04 01:00:00,44.4,38.6,29.97,ESE,112,0.0,0.0,80,0.00,,SKC,0.00,VWS V14.01,2013-06-04 05:00:00,
2013-06-04 02:00:00,42.3,38.1,29.97,ESE,112,0.0,0.0,85,0.00,,SKC,0.00,VWS V14.01,2013-06-04 06:00:00,
2013-06-04 03:00:00,41.6,37.7,29.97,ESE,112,0.0,0.0,86,0.00,,SKC,0.00,VWS V14.01,2013-06-04 07:00:00,
2013-06-04 04:00:00,40.7,37.4,29.98,ESE,112,0.0,0.0,88,0.00,,SKC,0.00,VWS V14.01,2013-06-04 08:00:00,
2013-06-04 05:00:00,40.0,37.0,30.00,ESE,112,0.0,0.0,89,0.00,,SKC,0.00,VWS V14.01,2013-06-04 09:00:00,
2013-06-04 06:00:00,39.7,37.0,30.01,ESE,112,0.0,0.0,90,0.00,,SKC,0.00,VWS V14.01,2013-06-04 10:00:00,
2013-06-04 07:00:00,42.4,40.2,30.02,ESE,112,0.0,0.0,92,0.00,,SKC,0.00,VWS V14.01,2013-06-04 11:00:00,
2013-06-04 08:00:00,49.9,39.4,30.03,ESE,112,0.0,0.0,67,0.00,,SKC,0.00,VWS V14.01,2013-06-04 12:00:00,
2013-06-04 09:00:00,58.1,40.6,30.03,ESE,112,0.0,5.0,52,0.00,,SKC,0.00,VWS V14.01,2013-06-04 13:00:00,
2013-06-04 10:00:00,62.9,41.8,30.02,East,90,2.0,9.0,46,0.00,,SKC,0.00,VWS V14.01,2013-06-04 14:00:00,
2013-06-04 11:00:00,65.3,42.8,30.01,East,90,2.0,10.0,44,0.00,,SKC,0.00,VWS V14.01,2013-06-04 15:00:00,
2013-06-04 12:00:00,67.7,41.2,30.02,East,90,1.0,9.0,38,0.00,,SKC,0.00,VWS V14.01,2013-06-04 16:00:00,
2013-06-04 13:00:00,68.4,40.4,30.01,East,90,1.0,10.0,36,0.00,,SKC,0.00,VWS V14.01,2013-06-04 17:00:00,
2013-06-04 14:00:00,69.6,44.2,29.99,East,90,1.0,11.0,40,0.00,,SKC,0.00,VWS V14.01,2013-06-04 18:00:00,
2013-06-04 15:00:00,70.9,41.2,29.99,East,90,1.0,9.0,34,0.00,,SKC,0.00,VWS V14.01,2013-06-04 19:00:00,
2013-06-04 16:00:00,72.1,43.0,29.98,ESE,112,1.0,10.0,35,0.00,,SKC,0.00,VWS V14.01,2013-06-04 20:00:00,
2013-06-04 17:00:00,72.7,45.0,29.98,ENE,68,0.0,6.0,37,0.00,,SKC,0.00,VWS V14.01,2013-06-04 21:00:00,
2013-06-04 18:00:00,71.2,47.0,29.99,East,90,0.0,6.0,42,0.00,,SKC,0.00,VWS V14.01,2013-06-04 22:00:00,
2013-06-04 19:00:00,68.8,47.8,29.99,SSE,158,1.0,8.0,47,0.00,,SKC,0.00,VWS V14.01,2013-06-04 23:00:00,
2013-06-04 20:00:00,64.5,46.5,29.99,East,90,1.0,7.0,52,0.00,,SKC,0.00,VWS V14.01,2013-06-05 00:00:00,
2013-06-04 21:00:00,61.1,45.8,30.00,ESE,112,0.0,5.0,57,0.00,,SKC,0.00,VWS V14.01,2013-06-05 01:00:00,
2013-06-04 22:00:00,58.7,44.0,30.01,ESE,112,0.0,6.0,58,0.00,,SKC,0.00,VWS V14.01,2013-06-05 02:00:00,
2013-06-04 23:00:00,56.2,43.4,30.02,East,90,0.0,4.0,62,0.00,,SKC,0.00,VWS V14.01,2013-06-05 03:00:00,